Regional Weather Roundup
Issued by NWS

Home | Current Version | Previous Version | Text Only | Print | Product List | Glossary Off
Versions: 1 2 3 4 5 6 7 8 9 10 11 12 13 14 15 16 17 18 19 20 21 22 23 24 25 26 27 28 29 30 31 32 33 34 35 36 37 38 39 40 41 42 43 44 45 46 47 48

000
ASUS45 KSLC 291610
RWRUT

UTAH REGIONAL WEATHER ROUNDUP
NATIONAL WEATHER SERVICE SALT LAKE CITY UT
900 AM MST THU JAN 29 2015

UTZ001>011-023>025-291700-

NORTHERN UTAH

CITY           SKY/WX    TMP DP  RH WIND       PRES   REMARKS
BRIGHAM CITY   MOSUNNY   31  29  94 CALM      30.38S
HILL AFB       MOSUNNY   41  26  54 E18G24    30.34S
LOGAN          CLOUDY    34  33  96 CALM      30.40S FOG
OGDEN          MOSUNNY   34  32  92 NW3       30.35S
PROVO AIRPORT  MOSUNNY   32  30  93 CALM      30.36S FOG
SALT LAKE CITY MOSUNNY   31  30  96 CALM      30.36S
VERNAL         MOSUNNY   36  28  73 W3        30.40S
WENDOVER       CLOUDY    37  30  75 CALM      30.37R
HEBER CITY     CLOUDY    30  28  93 CALM      30.40S
WEST JORDAN    SUNNY     32  32 100 CALM      30.36S

$$

UTZ012>022-026-027-291700-

SOUTHERN/CENTRAL UTAH

CITY           SKY/WX    TMP DP  RH WIND       PRES   REMARKS
BLANDING       CLOUDY    38  31  78 N3        30.42R
BRYCE CANYON   CLOUDY    32  28  85 CALM      30.36R
CEDAR CITY     CLOUDY    36  32  85 CALM      30.30S
DELTA          CLOUDY    32  31  97 CALM      30.34R
HANKSVILLE     PTSUNNY   32  30  93 CALM      30.39R
MILFORD        CLOUDY    34  31  88 CALM      30.33R FOG
MOAB/CYNLANDS  SUNNY     38  32  79 CALM      30.35R
PRICE          MOSUNNY   41  26  55 CALM      30.35R
ST GEORGE      PTSUNNY   46  39  76 CALM      30.27R

$$

REGIONAL REPORTS     COLORADO/ARIZONA

CITY           SKY/WX    TMP DP  RH WIND       PRES   REMARKS
CRAIG, CO      FOG       29  27  92 CALM      30.42S VSB<1/4
GRAND JUNCTION MOSUNNY   38  29  70 SE9       30.37R WCI  31
RIFLE          SUNNY     32  27  81 CALM      30.40R
MONTROSE       MOSUNNY   33  27  78 CALM      30.40R
CORTEZ         PTSUNNY   36  29  75 CALM      30.35S
PAGE, AZ       NOT AVBL
GRAND CANYON   CLOUDY    41  29  62 E10       30.29R
KINGMAN        CLOUDY    48  44  86 E5        30.18R
FLAGSTAFF      CLOUDY    40  28  62 E8        30.30R WCI  34

$$

REGIONAL REPORTS    NEVADA/IDAHO/WYOMING

CITY           SKY/WX    TMP DP  RH WIND       PRES   REMARKS
LAS VEGAS, NV  CLOUDY    56  43  61 S8        30.15R
ELY            PTSUNNY   27  25  92 CALM      30.34R
ELKO           CLOUDY    27  24  89 CALM      30.32R
POCATELLO, ID  CLOUDY    32  32 100 E6        30.43S FOG     WCI  26
BURLEY         CLOUDY    36  32  85 E10       30.40S WCI  28
EVANSTON, WY   MOSUNNY   29  24  82 NE6       30.39S HAZE    WCI  23
ROCK SPRINGS   FOG       28  27  96 NE8       30.43S VSB 1/4 WCI  20

$$


USA.gov is the U.S. government's official web portal to all federal, state and local government web resources and services.